Regional Weather Roundup
Issued by NWS Cleveland, OH

Home | Current Version | Previous Version | Text Only | Print | Product List | Glossary On
Versions: 1 2 3 4 5 6 7 8 9 10 11 12 13 14 15 16 17 18 19 20 21 22 23 24 25 26 27 28 29 30 31 32 33 34 35 36 37 38 39 40 41 42 43 44 45 46 47 48 49 50
000
ASUS41 KCLE 252110
RWRCLE
OHIO REGIONAL WEATHER ROUNDUP
NATIONAL WEATHER SERVICE WILMINGTON, OH
500 PM EDT SAT APR 25 2015

NOTE: "FAIR" INDICATES FEW OR NO CLOUDS BELOW 12,000 FEET WITH NO
SIGNIFICANT WEATHER AND/OR OBSTRUCTIONS TO VISIBILITY.

OHZ001>008-015>018-024>027-034-035-043-044-252200-
   NORTHWEST OHIO

CITY           SKY/WX    TMP DP  RH WIND       PRES   REMARKS
DEFIANCE       LGT RAIN  46  39  76 NE10      29.80R
FINDLAY        LGT RAIN  48  40  73 NE10      29.76R
TOLEDO EXPRESS CLOUDY    45  26  47 NE16      29.79S
TOLEDO EXEC    CLOUDY    45  26  47 NE13G21   29.80S
LIMA           LGT RAIN  45  41  86 E6        29.74R FOG
$$

OHZ009>014-019>023-028>033-038-089-252200-
   NORTHEAST OHIO

CITY           SKY/WX    TMP DP  RH WIND       PRES   REMARKS
CLE-HOPKINS    PTSUNNY   46  24  42 NE13      29.78F
CLE-LAKEFRONT  SUNNY     44  30  57 NE17      29.76F
CUY CO. ARPT   PTSUNNY   50  25  37 N10G20    29.76F
LORAIN-ELYRIA  CLOUDY    46  23  40 NE16      29.76F
ASHTABULA      SUNNY     49  25  39 N9G17     29.77F
AKRON-CANTON   PTSUNNY   53  25  33 NE7       29.72F
WOOSTER        PTSUNNY   50  30  46 E12       29.72F
MANSFIELD      CLOUDY    49  32  52 NE10      29.72F
YOUNGSTOWN     PTSUNNY   54  17  23 NE5       29.72F
$$

OHZ042-051>053-060>062-070>072-077>081-252200-
  SOUTHWEST OHIO

CITY           SKY/WX    TMP DP  RH WIND       PRES   REMARKS
CINC-COVINGTON CLOUDY    43  42  97 NE17G23   29.63F FOG
CINC-LUNKEN    LGT RAIN  45  43  93 NE15      29.67F
HAMILTON       CLOUDY    46  46 100 E10       29.68F
DAYTON         LGT RAIN  44  41  89 E16G25    29.67F
WRIGHT-PAT AFB LGT RAIN  44  42  95 NE15      29.66F
DAYTON GENERAL LGT RAIN  43  42  97 E13G23    29.66F FOG
WILMINGTON     HVY RAIN  41  39  93 NE13      29.70R FOG
$$

OHZ036-037-039>041-045>050-054>059-063>069-073>076-082>088-252200-
  CENTRAL AND SOUTHEAST OHIO

CITY           SKY/WX    TMP DP  RH WIND       PRES   REMARKS
COLUMBUS       RAIN      44  44 100 E9        29.70F
OSU AIRPORT    LGT RAIN  44  40  85 E6        29.72F FOG
BOLTON FIELD   RAIN      43  41  93 NE7       29.72S
RICKENBACK AFB LGT RAIN  43  40  90 NE8       29.71R
NEWARK         LGT RAIN  46  40  79 E10       29.70F
MARION         CLOUDY    48  40  73 E9        29.72F
LANCASTER      LGT RAIN  45  40  82 NE12      29.70F
ZANESVILLE     RAIN      44  40  85 NE3       29.71F FOG
NEW PHILLY     CLOUDY    54  31  41 NE9       29.71F
$$



USA.gov is the U.S. government's official web portal to all federal, state and local government web resources and services.